Find Starlink 38297

NORAD ID: 100442 Int'l Des: 2026-193 Owner: SPXS Country: US Constellation: starlink operational

当前视图

正在加载3D地球...

About Starlink 38297

Starlink 38297 (NORAD 100442) is a starlink constellation satellite launched Aug 22, 2026 by SPXS of US. with a mass of 575.00 kg.

即将过境

Passes for default location (London). Set your location on the main map for personalized predictions.

高度历史

Loading altitude history...

两行轨道根数

1 A0442U 26193K 26248.22685887 .00130414 00000-0 62507-3 0 9995
2 A0442 69.9996 117.0116 0003719 270.5993 89.4783 15.82204345 3356
Epoch: Sep 5, 2026 • Age: 9 hours

当前状态

高度 331.8 km
远地点 / 近地点 N/A
速度 7.71 km/s
星下点 -25.37°S, 95.17°W
发射日期 Aug 22, 2026
运行时间 14 days
类型 internet

技术详情

分类 Payload
质量 575.00 kg
干质量 530.00 kg
总质量 575.00 kg
长度 0.30 m
直径 4.10 m
跨度 29.00 m
形状 Box + pan
制造商 SPXS
平台类型 Starlink V2MO
阶段状态 In Orbit
所有者/国家 SPXS/US

Most Searched